Flag for Canada Weather past 2 weeks in Steinbach, Manitoba, Canada

Now
75 °F

Mild.


Feels Like: 78 °F
Forecast: 54 / 82 °F
Wind: 5 mph from Northwest

Location: Winnipeg The Forks

Current Time: Jul 29, 2014 at 8:54:24 PM

Latest Report: Jul 29, 2014 at 8:00 PM


Visibility: N/A

Pressure: 30.08 "Hg

Humidity: 50%

Dew point: 55 °F

Location of SteinbachLocation

Historic Weather in Steinbach — Graph

°F

Steinbach temperature yesterday

Maximum temperature yesterday: 76 °F (at 6:00 PM)
Minimum temperature yesterday: 56 °F (at 5:00 AM)
Average temperature yesterday: 67 °F

Past Weeks' High & Low Weather Summary

 TemperatureHumidityPressure
High88 °F (Jul 20, 3:00 PM)95% (Jul 15, 5:00 AM)30.33 "Hg (Jul 15, 5:00 AM)
Low51 °F (Jul 15, 5:00 AM)28% (Jul 25, 5:00 PM)29.49 "Hg (Jul 20, 2:00 PM)
Average69 °F63%29.92 "Hg
* Reported Jul 14 7:00 PM — Jul 29 7:00 PM, Steinbach, Weather by CustomWeather, © 2014

Note: Actual official high and low records may vary slightly from our data, if they occured in-between our weather recording intervals... More about our weather records

Advertising

Steinbach weather history for previous 24 hours

 ConditionsComfort  
Time TempWeatherWind HumidityBarometerVisibility
7:00 PM
Jul 29
77 °FWarm.6 mph45%30.08 "HgN/A
6:00 PM78 °FWarm.6 mph41%30.09 "HgN/A
5:00 PM79 °FPleasantly warm.3 mph36%30.10 "HgN/A
4:00 PM79 °FPleasantly warm.6 mph36%30.11 "HgN/A
3:00 PM78 °FPleasantly warm.5 mph39%30.11 "HgN/A
2:00 PM78 °FPleasantly warm.3 mph37%30.12 "HgN/A
1:00 PM76 °FMild.5 mph43%30.13 "HgN/A
12:00 PM75 °FMild.5 mph49%30.14 "HgN/A
11:00 AM73 °FMild.3 mph53%30.14 "HgN/A
10:00 AM71 °FMild.6 mph59%30.15 "HgN/A
9:00 AM67 °FMild.6 mph71%30.15 "HgN/A
8:00 AM62 °FCool.2 mph84%30.16 "HgN/A
7:00 AM61 °FCool.2 mph74%30.15 "HgN/A
6:00 AM61 °FCool.3 mph77%30.15 "HgN/A
5:00 AM62 °FMild.2 mph73%30.14 "HgN/A
4:00 AM63 °FMild.3 mph73%30.15 "HgN/A
3:00 AM64 °FMild.1 mph71%30.15 "HgN/A
2:00 AM64 °FMild.2 mph69%30.16 "HgN/A
1:00 AM65 °FMild.2 mph64%30.16 "HgN/A
12:00 AM67 °FMild.2 mph59%30.16 "HgN/A
11:00 PM
Jul 28
68 °FMild.3 mph55%30.16 "HgN/A
10:00 PM69 °FMild.2 mph59%30.17 "HgN/A
9:00 PM71 °FMild.5 mph54%30.17 "HgN/A
8:00 PM73 °FMild.3 mph48%30.16 "HgN/A
Weather by CustomWeather, © 2014

See weather overviewHow to use our weather pages